This is the latest recevied weather packets stored in our database for station/object HI8S-13. If no packets are shown the sender has not sent any weather packets the latest 1 day(s).
| Time | Temp. | Humidity | Pressure | Rain* | Wind** | Luminosity | Snow |
|---|---|---|---|---|---|---|---|
| 1778001206 | 30.56° C | 69% | 1016.7 hPa | 0 mm | 2.68 m/s, 159° | - | - |
| 1778000911 | 30.56° C | 69% | 1016.8 hPa | 0 mm | 2.68 m/s, 176° | - | - |
| 1778000605 | 30.56° C | 68% | 1016.9 hPa | 0 mm | 3.13 m/s, 184° | - | - |
| 1778000310 | 30.56° C | 67% | 1017 hPa | 0 mm | 2.68 m/s, 169° | - | - |
| 1778000007 | 30.56° C | 68% | 1017.1 hPa | 0 mm | 3.13 m/s, 185° | - | - |
| 1777999710 | 30.56° C | 68% | 1017.2 hPa | 0 mm | 2.24 m/s, 161° | - | - |
| 1777999406 | 30.56° C | 69% | 1017.3 hPa | 0 mm | 1.34 m/s, 179° | - | - |
| 1777999111 | 30.56° C | 68% | 1017.3 hPa | 0 mm | 2.68 m/s, 165° | - | - |
| 1777998806 | 30.56° C | 68% | 1017.2 hPa | 0 mm | 2.24 m/s, 136° | - | - |
| 1777998511 | 30.56° C | 68% | 1017.3 hPa | 0 mm | 2.68 m/s, 180° | - | - |
| 1777998207 | 30.56° C | 68% | 1017.4 hPa | 0 mm | 1.79 m/s, 132° | - | - |
| 1777997912 | 30.56° C | 69% | 1017.4 hPa | 0 mm | 1.79 m/s, 186° | - | - |
| 1777997606 | 30.56° C | 68% | 1017.4 hPa | 0 mm | 2.68 m/s, 98° | - | - |
| 1777997307 | 30.56° C | 70% | 1017.4 hPa | 0 mm | 0.45 m/s, 167° | - | - |
| 1777997012 | 30° C | 69% | 1017.3 hPa | 0 mm | 1.79 m/s, 308° | - | - |
| 1777996717 | 30.56° C | 69% | 1017.3 hPa | 0 mm | 2.68 m/s, 141° | - | - |
| 1777996423 | 30.56° C | 69% | 1017.1 hPa | 0 mm | 2.68 m/s, 185° | - | - |
| 1777996108 | 30° C | 69% | 1017 hPa | 0 mm | 2.24 m/s, 158° | - | - |
| 1777995805 | 30° C | 68% | 1017.1 hPa | 0 mm | 2.68 m/s, 161° | - | - |
| 1777995510 | 30.56° C | 68% | 1017 hPa | 0 mm | 2.68 m/s, 274° | - | - |
| 1777995205 | 30.56° C | 67% | 1017 hPa | 0 mm | 3.13 m/s, 155° | - | - |
| 1777994906 | 30.56° C | 67% | 1017.1 hPa | 0 mm | 3.13 m/s, 215° | - | - |
| 1777994610 | 30.56° C | 68% | 1017.2 hPa | 0 mm | 3.13 m/s, 195° | - | - |
| 1777994306 | 30.56° C | 69% | 1017.2 hPa | 0 mm | 2.24 m/s, 105° | - | - |
| 1777994010 | 30° C | 69% | 1017.3 hPa | 0 mm | 2.68 m/s, 173° | - | - |
* Rain latest hour (hover to see other rain measurements)
** Current wind speed in m/s (hover to see current wind gust speed)